Weather History for Panama City Tyndall AFB, FL

Change the Weather History Date:

Wednesday, January 16, 2013

  Actual Average Record
Temperature  
Mean Temperature 69 °F -  
Max Temperature 74 °F 61 °F 74 °F (2013)
Min Temperature 64 °F 42 °F 29 °F (2011)
Cooling Degree Days 4    
Growing Degree Days 19 (Base 50)    
Moisture  
Dew Point 69 °F    
Average Humidity 100    
Maximum Humidity 100    
Minimum Humidity 99    
Precipitation  
Precipitation 0.03 in - - ()
Sea Level Pressure  
Sea Level Pressure 29.99 in    
Wind  
Wind Speed 11 mph (South)    
Max Wind Speed 18 mph    
Max Gust Speed 25 mph    
Visibility 10 miles    
Events Rain    
Averages and records for this station are not official NWS values.
T = Trace of Precipitation, MM = Missing Value Source: NWS Daily Summary

Daily Weather History Graph

Daily Weather History Graph

Search for Another Location

Airport:

Trip Planner

Search our weather history database for the weather conditions in past years. The results will help you decide how hot, cold, wet, or windy it might be!

Date:

Astronomy

Jan. 16, 2013 Rise Set
Actual Time 6:38 AM CST 5:05 PM CST
Civil Twilight 6:13 AM CST 5:31 PM CST
Nautical Twilight 5:43 AM CST 6:00 PM CST
Astronomical Twilight 5:14 AM CST 6:29 PM CST
Moon 9:41 AM CST (1/16) 10:27 PM CST (1/16)
Length of Visible Light 11h 18m
Length of Day
10h 26m
Waxing Crescent, 28% of the Moon is Illuminated
Jan 16
Waxing Crescent
Jan 18
First Quarter
Jan 26
Full
Feb 3
Last Quarter
Feb 10
New

Hourly Weather History & Observations

Time (CST) Temp. Dew Point Humidity Pressure Visibility Wind Dir Wind Speed Gust Speed Precip Events Conditions
12:40 AM 68.0 °F 68.0 °F 100% 30.01 in 10.0 mi South 11.5 mph - N/A   Mostly Cloudy
12:55 AM 67.8 °F 67.8 °F 100% 30.01 in 10.0 mi South 12.7 mph - N/A   Mostly Cloudy
1:26 AM 68.0 °F 68.0 °F 100% 30.01 in 10.0 mi SSE 11.5 mph - N/A   Scattered Clouds
1:55 AM 67.8 °F 67.8 °F 100% 30.01 in 10.0 mi SSE 12.7 mph - N/A   Mostly Cloudy
2:02 AM 68.0 °F 68.0 °F 100% 30.01 in 10.0 mi SSE 12.7 mph - N/A   Scattered Clouds
2:19 AM 68.0 °F 68.0 °F 100% 30.00 in 10.0 mi SSE 12.7 mph - N/A   Scattered Clouds
2:36 AM 68.0 °F 68.0 °F 100% 30.00 in 10.0 mi South 13.8 mph - N/A   Partly Cloudy
2:55 AM 67.5 °F 67.5 °F 100% 30.00 in 10.0 mi South 11.5 mph - N/A   Clear
3:55 AM 67.5 °F 67.5 °F 100% 29.99 in 10.0 mi South 12.7 mph - N/A   Clear
4:55 AM 67.1 °F 67.1 °F 100% 29.99 in 10.0 mi SSE 9.2 mph - N/A   Clear
5:55 AM 67.3 °F 67.3 °F 100% 30.00 in 10.0 mi SSE 12.7 mph - N/A   Clear
6:55 AM 67.5 °F 67.5 °F 100% 30.01 in 10.0 mi SSE 11.5 mph - N/A   Clear
7:55 AM 68.9 °F 68.7 °F 99% 30.03 in 10.0 mi SSE 12.7 mph - N/A   Clear
8:55 AM 70.2 °F 70.2 °F 100% 30.05 in 10.0 mi South 11.5 mph - N/A   Mostly Cloudy
9:55 AM 72.9 °F 72.9 °F 100% 30.04 in 10.0 mi SSE 16.1 mph - N/A   Mostly Cloudy
10:55 AM 73.8 °F 73.8 °F 100% 30.00 in 10.0 mi SSE 18.4 mph 25.3 mph N/A   Mostly Cloudy
11:55 AM 73.8 °F 73.8 °F 100% 29.99 in 10.0 mi SSE 16.1 mph 24.2 mph N/A   Mostly Cloudy
12:06 PM 73.4 °F 73.4 °F 100% 29.99 in 10.0 mi SSE 17.3 mph 23.0 mph N/A   Mostly Cloudy
12:27 PM 73.4 °F 73.4 °F 100% 29.98 in 10.0 mi South 18.4 mph - N/A   Overcast
12:55 PM 73.0 °F 73.0 °F 100% 29.98 in 10.0 mi South 13.8 mph - N/A   Overcast
1:15 PM 73.4 °F 73.4 °F 100% 29.97 in 10.0 mi SSE 15.0 mph - N/A   Scattered Clouds
1:55 PM 74.1 °F 74.1 °F 100% 29.97 in 10.0 mi South 12.7 mph - N/A   Mostly Cloudy
2:55 PM 72.0 °F 72.0 °F 100% 29.97 in 10.0 mi SSE 15.0 mph - N/A   Overcast
3:50 PM 72.0 °F 72.0 °F 100% 29.96 in 10.0 mi South 10.4 mph - N/A   Mostly Cloudy
3:55 PM 70.9 °F 70.9 °F 100% 29.98 in 10.0 mi SSE 12.7 mph - N/A   Mostly Cloudy
4:55 PM 70.5 °F 70.5 °F 100% 29.99 in 10.0 mi South 10.4 mph - N/A   Mostly Cloudy
5:55 PM 69.8 °F 69.8 °F 100% 29.99 in 10.0 mi South 11.5 mph - N/A   Clear
6:55 PM 69.8 °F 69.8 °F 100% 29.99 in 10.0 mi SSW 8.1 mph - N/A   Partly Cloudy
7:11 PM 68.0 °F 68.0 °F 100% 29.99 in 6.0 mi WNW 6.9 mph - N/A Rain Light Rain
7:12 PM 68.0 °F 68.0 °F 100% 29.99 in 5.0 mi NW 6.9 mph - N/A Rain Light Rain
7:37 PM 68.0 °F 68.0 °F 100% 30.00 in 10.0 mi West 5.8 mph - N/A   Light Drizzle
7:55 PM 67.3 °F 67.3 °F 100% 30.00 in 10.0 mi WNW 8.1 mph - 0.03 in   Light Drizzle
8:55 PM 66.9 °F 66.7 °F 99% 30.00 in 10.0 mi West 9.2 mph - 0.00 in   Light Drizzle
9:03 PM 66.2 °F 66.2 °F 100% 30.00 in 10.0 mi WNW 10.4 mph - N/A   Light Drizzle
9:42 PM 66.2 °F 66.2 °F 100% 29.99 in 10.0 mi WNW 8.1 mph - N/A   Light Drizzle
9:55 PM 65.8 °F 65.8 °F 100% 29.99 in 10.0 mi WNW 4.6 mph - 0.00 in   Light Drizzle
10:26 PM 66.2 °F 66.2 °F 100% 29.99 in 10.0 mi WSW 3.5 mph - N/A   Light Drizzle
10:55 PM 65.3 °F 65.3 °F 100% 29.98 in 10.0 mi Calm Calm - 0.00 in   Light Drizzle
11:11 PM 64.4 °F 64.4 °F 100% 29.97 in 10.0 mi SW 3.5 mph - N/A   Light Drizzle
11:34 PM 64.4 °F 64.4 °F 100% 29.97 in 10.0 mi South 3.5 mph - N/A   Light Drizzle
11:55 PM 65.5 °F 65.5 °F 100% 29.98 in 10.0 mi WSW 5.8 mph - 0.00 in   Light Drizzle
11:58 PM 66.2 °F 66.2 °F 100% 29.98 in 10.0 mi WSW 5.8 mph - N/A   Light Drizzle